Flag for Germany Weather past 2 weeks in Güstrow, Mecklenburg-Western Pomerania, Germany

Now
72 °F

Partly sunny.


Feels Like: 76 °F
Forecast: 53 / 74 °F
Wind: 16 mph from East

Location: Laage

Current Time: Sep 17, 2014 at 4:15:14 PM

Latest Report: Sep 17, 2014 at 3:20 PM


Visibility: N/A

Pressure: 30.07 "Hg

Humidity: 57%

Dew point: 55 °F

Location of GüstrowLocation

Historic Weather in Güstrow — Graph

°F

Güstrow temperature yesterday

Maximum temperature yesterday: 73 °F (at 2:20 PM)
Minimum temperature yesterday: 57 °F (at 4:20 AM)
Average temperature yesterday: 63 °F

Past Weeks' High & Low Weather Summary

 TemperatureHumidityPressure
High79 °F (Sep 6, 3:20 PM)100% (Sep 3, 3:20 AM)30.36 "Hg (Sep 3, 3:20 AM)
Low48 °F (Sep 11, 6:20 AM)45% (Sep 6, 3:20 PM)29.89 "Hg (Sep 6, 4:20 PM)
Average62 °F83%30.10 "Hg
* Reported Sep 2 2:20 PM — Sep 17 2:20 PM, Güstrow, Weather by CustomWeather, © 2014

Note: Actual official high and low records may vary slightly from our data, if they occured in-between our weather recording intervals... More about our weather records

Advertising

Güstrow weather history for previous 24 hours

 ConditionsComfort  
Time TempWeatherWind HumidityBarometerVisibility
2:20 PM
Sep 17
72 °FPartly sunny.13 mph50%30.07 "HgN/A
1:20 PM70 °FPartly sunny.14 mph53%30.07 "HgN/A
12:20 PM70 °FScattered clouds.17 mph50%30.09 "HgN/A
11:20 AM68 °FPassing clouds.15 mph60%30.09 "HgN/A
10:20 AM64 °FPassing clouds.13 mph68%30.12 "HgN/A
9:20 AM59 °FPassing clouds.12 mph77%30.12 "HgN/A
8:20 AM55 °FPassing clouds.8 mph88%30.12 "HgN/A
7:20 AM54 °FPassing clouds.6 mph94%30.12 "HgN/A
6:20 AM54 °FFog.8 mph94%30.09 "HgN/A
5:20 AM54 °FPassing clouds.7 mph94%30.09 "HgN/A
4:20 AM55 °FPassing clouds.6 mph88%30.12 "HgN/A
3:20 AM55 °FPassing clouds.6 mph88%30.12 "HgN/A
2:20 AM55 °FPassing clouds.9 mph94%30.12 "HgN/A
1:20 AM55 °FCool.10 mph88%30.12 "HgN/A
12:20 AM57 °FCool.9 mph82%30.12 "HgN/A
11:20 PM
Sep 16
57 °FCool.10 mph82%30.15 "HgN/A
10:20 PM59 °FCool.9 mph77%30.15 "HgN/A
9:20 PM61 °FPassing clouds.10 mph77%30.12 "HgN/A
8:20 PM63 °FPassing clouds.10 mph73%30.12 "HgN/A
7:20 PM64 °FPassing clouds.12 mph78%30.09 "HgN/A
6:20 PM70 °FPassing clouds.16 mph64%30.09 "HgN/A
5:20 PM72 °FScattered clouds.16 mph61%30.09 "HgN/A
4:20 PM73 °FScattered clouds.17 mph61%30.09 "HgN/A
Weather by CustomWeather, © 2014

See weather overviewHow to use our weather pages